Date,TemperatureHighF,TemperatureAvgF,TemperatureLowF,DewpointHighF,DewpointAvgF,DewpointLowF,HumidityHigh,HumidityAvg,HumidityLow,PressureMaxIn,PressureMinIn,WindSpeedMaxMPH,WindSpeedAvgMPH,GustSpeedMaxMPH,PrecipitationSumIn
2013-1-1,30.0,22.0,8.0,31.0,16.8,4.0,100,80,48,29.65,29.38,25,5,28,0.08
2013-1-2,14.0,7.0,0.0,8.0,1.9,-6.0,97,75,53,29.84,29.61,27,6,30,0.00
2013-1-3,18.0,6.8,-3.0,8.0,3.5,-6.0,100,80,54,29.91,29.77,13,1,13,0.00
2013-1-4,33.0,21.8,7.0,31.0,20.8,4.0,100,94,83,29.77,29.49,16,2,16,0.00
2013-1-5,32.0,24.4,10.0,31.0,17.0,4.0,100,73,40,30.13,29.49,27,4,28,0.01
2013-1-6,27.0,17.5,9.0,28.0,17.0,8.0,100,95,78,30.10,29.71,7,0,9,0.00
2013-1-7,20.0,13.3,8.0,18.0,11.6,4.0,100,89,62,30.27,29.80,13,1,18,0.00
2013-1-8,41.0,32.8,13.0,36.0,27.8,14.0,100,82,59,30.21,29.93,24,2,26,0.34
2013-1-9,41.0,33.4,22.0,37.0,28.8,16.0,97,83,56,30.23,29.62,15,1,18,0.17
2013-1-10,43.0,35.9,24.0,35.0,27.1,21.0,92,70,46,30.31,29.62,37,7,43,0.02
2013-1-11,37.0,28.5,20.0,26.0,20.0,16.0,100,71,42,30.33,30.09,11,0,11,0.00
2013-1-12,41.0,36.9,31.0,38.0,33.3,23.0,96,86,57,30.10,29.89,7,0,7,0.00
2013-1-13,45.0,42.1,40.0,33.0,25.6,18.0,62,51,39,29.93,29.71,14,1,14,0.02
2013-1-14,52.0,43.8,35.0,47.0,33.6,11.0,85,68,17,29.99,29.61,19,3,19,0.01
2013-1-15,36.0,30.8,24.0,28.0,24.0,18.0,94,75,52,30.10,29.98,15,1,15,0.00
2013-1-16,34.0,29.3,25.0,29.0,19.9,14.0,100,68,43,30.11,29.60,8,0,9,0.00
2013-1-17,40.0,28.0,10.0,35.0,15.1,-6.0,91,57,31,29.99,29.52,24,5,25,0.30
2013-1-18,14.0,8.3,1.0,4.0,-2.3,-13.0,82,57,38,30.22,29.96,20,4,26,0.00
2013-1-19,33.0,26.4,12.0,33.0,22.8,4.0,100,86,58,30.21,29.73,15,1,15,0.01
2013-1-20,48.0,38.0,21.0,44.0,27.2,4.0,95,65,41,29.73,29.20,33,5,33,0.07
2013-1-21,21.0,15.5,11.0,16.0,3.2,-6.0,100,54,33,29.86,29.60,35,5,35,0.00
2013-1-22,14.0,8.3,1.0,14.0,1.9,-6.0,100,71,49,29.81,29.63,20,3,20,0.00
2013-1-23,6.0,-0.0,-6.0,-6.0,-9.8,-13.0,74,56,39,29.89,29.79,24,6,27,0.00
2013-1-24,8.0,0.3,-7.0,-6.0,-8.9,-13.0,82,62,39,29.90,29.69,30,5,30,0.00
2013-1-25,18.0,8.3,-1.0,4.0,0.4,-6.0,81,64,42,29.97,29.87,24,4,24,0.00
2013-1-26,17.0,9.4,3.0,4.0,-0.1,-6.0,79,60,38,29.93,29.76,21,3,22,0.00
2013-1-27,21.0,12.6,5.0,8.0,3.6,0.0,85,63,48,30.21,29.90,25,6,26,0.00
2013-1-28,24.0,16.6,6.0,21.0,5.5,-6.0,100,62,29,30.24,29.90,12,0,13,0.00
2013-1-29,38.0,25.7,14.0,28.0,18.9,11.0,100,75,47,30.05,29.89,10,0,11,0.00
2013-1-30,49.0,42.5,32.0,38.0,27.8,16.0,97,58,28,29.98,29.25,25,6,27,0.34
2013-1-31,56.0,45.6,32.0,41.0,25.3,4.0,85,50,12,29.25,28.60,57,11,57,0.31
2013-2-1,32.0,22.4,11.0,16.0,7.8,4.0,73,50,38,29.84,29.18,30,7,30,0.00
2013-2-2,24.0,15.7,6.0,21.0,8.1,0.0,100,70,39,30.03,29.84,14,2,14,0.00
2013-2-3,30.0,21.7,18.0,26.0,21.1,16.0,100,94,73,29.90,29.48,17,2,17,0.03
2013-2-4,26.0,18.8,12.0,21.0,9.8,-6.0,100,68,37,29.66,29.37,28,6,31,0.00
2013-2-5,20.0,12.4,6.0,8.0,-1.1,-6.0,72,50,31,29.89,29.66,21,3,21,0.00
2013-2-6,34.0,21.0,9.0,33.0,13.8,0.0,100,72,37,30.06,29.70,21,2,27,0.01
2013-2-7,14.0,6.7,2.0,0.0,-6.4,-13.0,66,50,30,30.48,30.07,21,3,21,0.00
2013-2-8,19.0,10.0,2.0,18.0,7.2,-6.0,100,85,54,30.47,29.78,23,2,24,0.00
2013-2-9,84.0,11.8,8.0,16.0,12.8,-6.0,100,100,100,29.85,29.46,43,8,43,0.00
2013-2-10,33.0,19.9,10.0,18.0,10.8,4.0,100,69,33,30.18,29.85,14,3,21,0.01
2013-2-11,41.0,26.3,10.0,33.0,18.0,4.0,100,74,32,30.19,29.36,19,1,20,0.30
2013-2-12,41.0,36.9,32.0,37.0,30.1,11.0,89,76,32,29.52,29.28,15,2,17,0.03
2013-2-13,43.0,34.0,28.0,32.0,27.9,21.0,100,79,48,29.57,29.50,14,1,14,0.00
2013-2-14,40.0,31.0,22.0,29.0,22.1,16.0,100,72,39,29.84,29.51,17,1,18,0.00
2013-2-15,43.0,35.1,22.0,41.0,31.2,21.0,100,86,56,29.85,29.71,26,2,28,0.00
2013-2-16,38.0,31.9,25.0,35.0,23.5,16.0,99,71,44,29.73,29.55,17,2,18,0.00
2013-2-17,25.0,20.4,17.0,23.0,19.9,14.0,100,96,80,29.55,28.78,38,9,38,0.00
2013-2-18,28.0,19.8,13.0,16.0,6.7,4.0,85,54,39,29.73,29.10,34,10,35,0.03
2013-2-19,44.0,29.6,17.0,36.0,14.5,4.0,95,52,23,29.90,29.51,14,2,14,0.11
2013-2-20,44.0,36.7,28.0,33.0,22.9,14.0,90,59,32,29.52,29.15,28,5,28,0.73
2013-2-21,33.0,27.2,22.0,33.0,21.8,14.0,100,79,60,29.88,29.38,23,5,27,0.00
2013-2-22,40.0,30.3,22.0,29.0,23.1,18.0,100,76,42,30.20,29.88,19,2,19,0.00
2013-2-23,32.0,28.0,23.0,31.0,27.7,23.0,100,97,90,30.19,29.88,16,2,16,0.00
2013-2-24,32.0,28.4,26.0,32.0,24.5,16.0,100,84,63,29.89,29.61,10,1,13,0.02
2013-2-25,40.0,27.1,19.0,26.0,19.3,4.0,100,77,24,30.07,29.68,13,1,14,0.06
2013-2-26,47.0,30.8,20.0,29.0,23.2,8.0,100,74,42,30.16,30.07,11,0,11,0.00
2013-2-27,40.0,31.9,24.0,35.0,26.4,16.0,100,79,53,30.12,29.57,24,3,24,0.01
2013-2-28,39.0,35.3,32.0,31.0,24.9,18.0,71,65,55,29.57,29.31,21,4,23,1.24
2013-3-1,33.0,30.8,29.0,21.0,14.3,11.0,59,48,41,29.43,29.31,16,2,16,0.14
2013-3-2,37.0,32.7,30.0,32.0,18.8,11.0,90,56,35,29.40,29.34,15,2,15,0.20
2013-3-3,44.0,35.9,33.0,40.0,23.4,11.0,94,61,34,29.38,29.26,12,1,13,0.03
2013-3-4,35.0,32.3,30.0,32.0,21.0,11.0,92,63,37,29.44,29.22,16,2,16,0.12
2013-3-5,45.0,36.0,32.0,42.0,25.3,11.0,94,65,33,29.93,29.44,18,2,18,0.18
2013-3-6,39.0,33.7,31.0,35.0,30.2,24.0,99,86,66,30.09,29.93,22,3,22,0.01
2013-3-7,38.0,33.2,31.0,31.0,27.7,24.0,95,80,61,30.06,29.90,22,4,22,0.00
2013-3-8,47.0,35.6,29.0,29.0,25.5,21.0,96,69,37,30.02,29.80,26,5,27,0.00
2013-3-9,43.0,32.3,26.0,29.0,26.4,23.0,100,81,46,30.21,30.01,17,2,18,0.00
2013-3-10,38.0,30.6,26.0,31.0,28.4,24.0,100,91,63,30.25,30.12,7,1,10,0.00
2013-3-11,42.0,37.8,32.0,40.0,33.3,21.0,95,84,46,30.14,29.98,18,4,19,0.00
2013-3-12,51.0,45.4,40.0,48.0,30.7,8.0,92,60,19,29.98,29.63,27,6,27,0.25
2013-3-13,49.0,43.4,32.0,36.0,22.0,4.0,95,45,18,29.63,29.40,35,5,35,1.00
2013-3-14,44.0,32.9,24.0,35.0,26.6,18.0,100,78,46,29.51,29.39,18,2,20,0.01
2013-3-15,33.0,24.1,17.0,23.0,14.1,8.0,100,65,32,29.57,29.38,21,4,24,0.00
2013-3-16,34.0,27.0,20.0,24.0,14.4,8.0,98,58,33,29.69,29.43,17,2,18,0.00
2013-3-17,29.0,21.4,13.0,16.0,5.8,-6.0,100,50,24,30.12,29.69,28,5,29,0.00
2013-3-18,32.0,20.9,9.0,16.0,2.2,0.0,66,42,23,30.24,30.10,19,3,21,0.00
2013-3-19,27.0,24.1,23.0,24.0,14.9,-6.0,100,67,37,30.14,29.46,19,2,21,0.00
2013-3-20,33.0,25.0,17.0,32.0,22.8,14.0,100,90,65,29.51,29.36,22,4,23,0.21
2013-3-21,39.0,31.3,25.0,31.0,25.0,16.0,100,79,44,29.58,29.41,13,1,13,0.25
2013-3-22,41.0,30.3,21.0,28.0,20.3,14.0,100,69,33,29.43,29.30,17,3,17,0.01
2013-3-23,39.0,31.7,24.0,29.0,21.6,16.0,84,66,43,29.40,29.19,25,5,25,0.00
2013-3-24,45.0,36.7,30.0,31.0,25.6,23.0,97,66,43,29.57,29.35,20,3,20,0.00
2013-3-25,45.0,35.2,25.0,36.0,27.7,18.0,98,74,52,29.58,29.39,19,1,19,0.00
2013-3-26,49.0,36.9,27.0,33.0,27.5,23.0,97,71,37,29.49,29.31,25,3,25,0.00
2013-3-27,40.0,35.1,29.0,32.0,23.8,14.0,97,65,36,29.63,29.47,15,1,16,0.19
2013-3-28,51.0,39.3,33.0,40.0,30.0,18.0,92,69,47,29.73,29.63,14,1,14,0.00
2013-3-29,54.0,43.5,33.0,41.0,33.9,23.0,92,70,43,29.77,29.66,14,1,17,0.00
2013-3-30,53.0,41.4,30.0,36.0,27.2,14.0,95,63,21,29.88,29.70,19,1,19,0.00
2013-3-31,51.0,38.9,23.0,38.0,25.2,14.0,100,62,25,29.94,29.70,19,2,19,0.00
2013-4-1,46.0,40.7,34.0,41.0,26.1,8.0,91,57,22,29.70,29.26,23,4,25,0.73
2013-4-2,37.0,30.6,26.0,31.0,15.5,8.0,98,53,31,29.60,29.40,30,6,30,0.00
2013-4-3,39.0,31.7,26.0,26.0,15.5,11.0,96,50,35,29.77,29.53,27,8,30,0.00
2013-4-4,49.0,36.6,28.0,37.0,18.5,4.0,90,50,18,29.93,29.76,22,5,23,0.00
2013-4-5,47.0,41.1,36.0,39.0,35.3,26.0,91,80,49,29.76,29.41,24,4,24,0.00
2013-4-6,38.0,31.3,24.0,26.0,11.4,0.0,72,43,19,30.17,29.54,29,6,30,0.00
2013-4-7,42.0,33.9,21.0,37.0,24.7,8.0,100,68,44,30.18,29.77,30,6,30,0.01
2013-4-8,57.0,47.0,37.0,42.0,34.1,16.0,91,61,30,29.95,29.67,26,3,26,0.00
2013-4-9,41.0,38.6,35.0,37.0,20.7,14.0,91,50,31,29.96,29.71,16,1,16,0.38
2013-4-10,52.0,42.7,39.0,43.0,24.3,8.0,75,48,25,29.79,29.66,14,1,14,0.04
2013-4-11,49.0,41.0,32.0,36.0,18.4,11.0,84,41,26,30.00,29.66,21,3,21,0.00
2013-4-12,39.0,32.8,27.0,31.0,18.7,11.0,86,55,41,30.08,29.75,15,2,17,0.16
2013-4-13,42.0,36.1,32.0,39.0,24.2,8.0,89,62,31,29.75,29.58,14,1,14,0.34
2013-4-14,49.0,39.7,35.0,46.0,22.2,8.0,88,50,25,29.95,29.71,13,0,13,0.09
2013-4-15,51.0,39.5,34.0,44.0,26.4,8.0,89,61,27,30.24,29.95,12,2,14,0.01
2013-4-16,49.0,43.1,38.0,45.0,30.9,11.0,89,64,22,30.23,29.73,26,6,28,0.18
2013-4-17,60.0,49.3,41.0,39.0,27.5,4.0,80,45,16,30.15,29.71,26,4,27,0.01
2013-4-18,50.0,40.8,30.0,37.0,26.1,16.0,78,56,35,30.29,29.97,17,2,17,0.00
2013-4-19,57.0,49.9,44.0,39.0,18.9,-23.0,77,35,5,29.97,29.48,32,5,32,0.00
2013-4-20,56.0,49.5,42.0,47.0,35.4,-6.0,87,60,10,29.90,29.37,28,4,31,0.36
2013-4-21,50.0,40.3,31.0,32.0,23.1,14.0,94,53,24,30.51,29.90,20,3,21,0.00
2013-4-22,48.0,37.9,27.0,36.0,25.4,16.0,89,60,40,30.60,30.49,16,2,18,0.00
2013-4-23,42.0,38.0,28.0,39.0,25.3,8.0,91,62,22,30.51,30.01,14,1,14,0.11
2013-4-24,54.0,46.2,42.0,31.0,11.0,-23.0,52,26,2,30.01,29.53,14,1,15,0.72
2013-4-25,63.0,51.0,41.0,48.0,29.8,-23.0,77,46,5,30.07,29.61,22,4,26,0.08
2013-4-26,57.0,45.2,34.0,38.0,33.6,24.0,90,66,41,30.24,30.07,15,2,15,0.00
2013-4-27,58.0,46.6,35.0,40.0,31.4,14.0,90,57,33,30.24,30.05,17,2,17,0.00
2013-4-28,63.0,48.7,35.0,42.0,34.8,4.0,87,60,25,30.14,30.01,14,2,14,0.00
2013-4-29,64.0,49.4,35.0,44.0,30.6,14.0,77,49,30,30.09,29.98,16,2,17,0.00
2013-4-30,64.0,55.3,40.0,46.0,33.3,8.0,76,46,20,30.16,30.06,15,2,15,0.00
2013-5-1,65.0,51.9,37.0,45.0,30.4,11.0,76,46,21,30.25,30.16,17,2,17,0.00
2013-5-2,62.0,48.1,40.0,47.0,38.2,18.0,86,69,38,30.34,30.18,19,2,19,0.00
2013-5-3,64.0,49.2,37.0,47.0,39.2,26.0,87,70,47,30.36,30.13,14,2,14,0.00
2013-5-4,56.0,45.8,36.0,42.0,34.4,21.0,88,65,46,30.22,30.08,17,2,19,0.00
2013-5-5,58.0,46.9,35.0,43.0,33.7,14.0,75,60,27,30.15,30.03,19,3,19,0.00
2013-5-6,60.0,49.3,40.0,48.0,31.9,14.0,76,53,28,30.08,29.95,18,3,19,0.00
2013-5-7,64.0,51.1,43.0,54.5,31.7,4.0,78,50,14,29.99,29.85,22,3,22,0.00
2013-5-8,71.0,55.9,46.0,60.5,31.9,-6.0,71,44,8,30.02,29.94,17,2,18,0.00
2013-5-9,56.0,51.6,49.0,35.0,16.0,-6.0,46,25,7,29.96,29.70,10,2,10,0.68
2013-5-10,65.0,54.6,49.0,51.0,29.1,-23.0,72,41,1,29.76,29.65,14,1,14,0.01
2013-5-11,57.0,52.2,46.0,42.0,9.2,-40.0,67,25,1,29.75,29.49,21,4,21,0.17
2013-5-12,55.0,52.9,47.0,36.0,27.7,-13.0,49,39,7,29.49,29.31,16,2,17,0.54
2013-5-13,53.0,47.6,40.0,43.0,29.0,0.0,80,52,15,29.78,29.48,25,4,28,0.03
2013-5-14,56.0,47.7,40.0,43.0,35.4,29.0,81,64,38,29.79,29.68,13,1,14,0.00
2013-5-15,60.0,48.8,35.0,44.0,30.9,4.0,80,54,15,29.79,29.50,25,4,25,0.27
2013-5-16,68.0,56.8,47.0,56.5,32.9,-6.0,73,46,7,29.53,29.30,25,3,26,0.01
2013-5-17,59.0,51.2,45.0,46.0,39.4,29.0,79,65,44,29.98,29.53,19,2,25,0.00
2013-5-18,60.0,48.1,38.0,48.0,38.6,24.0,86,70,48,30.16,29.98,16,2,17,0.00
2013-5-19,57.0,49.8,40.0,48.0,34.9,16.0,79,58,26,30.16,30.05,15,2,15,0.00
2013-5-20,57.0,51.2,48.0,26.0,5.9,-40.0,32,16,2,30.05,29.70,19,2,19,0.78
2013-5-21,49.0,48.1,47.0,28.0,8.4,-6.0,48,20,9,29.86,29.78,10,1,10,0.06
2013-5-22,51.0,48.6,47.0,35.0,17.4,-13.0,58,32,5,29.84,29.73,16,3,18,0.42
2013-5-23,61.0,52.6,46.0,47.0,19.5,-40.0,82,36,1,29.76,29.61,16,2,19,0.00
2013-5-24,61.0,55.9,49.0,41.0,26.1,-23.0,50,34,2,29.63,29.45,27,4,33,1.59
2013-5-25,51.0,49.5,47.0,26.0,2.9,-23.0,43,17,2,29.61,29.47,16,3,16,0.44
2013-5-26,51.0,47.4,42.0,39.0,16.2,-13.0,64,30,7,29.70,29.42,15,3,15,0.35
2013-5-27,63.0,50.4,39.0,47.5,32.2,0.0,82,52,17,29.95,29.69,22,2,22,0.00
2013-5-28,69.0,54.9,38.0,51.0,34.3,0.0,80,48,11,30.03,29.93,20,2,20,0.00
2013-5-29,53.0,50.0,46.0,42.0,18.1,-13.0,78,30,7,30.03,29.79,16,2,18,0.31
2013-5-30,81.0,62.7,50.0,70.0,41.3,-23.0,80,48,2,29.79,29.66,11,1,12,0.02
2013-5-31,82.0,69.2,55.0,68.0,37.0,-40.0,80,44,1,29.79,29.59,18,2,18,0.00
2013-6-1,85.0,71.3,61.0,70.0,49.1,-23.0,78,52,2,29.67,29.54,17,2,18,0.00
2013-6-2,77.0,65.6,59.0,66.3,42.8,4.0,70,47,11,29.57,29.45,26,3,26,0.01
2013-6-3,68.0,60.3,56.0,54.0,19.9,-23.0,61,24,1,29.60,29.46,17,2,18,0.01
2013-6-4,65.0,58.5,48.0,53.0,38.3,-23.0,80,50,3,29.78,29.52,22,3,22,0.00
2013-6-5,69.0,57.1,46.0,51.0,42.1,35.0,78,59,31,29.93,29.78,18,2,19,0.00
2013-6-6,71.0,57.6,45.0,53.5,36.0,8.0,79,46,18,29.99,29.90,12,1,14,0.00
2013-6-7,62.0,54.7,51.0,52.0,28.9,8.0,77,41,16,29.96,29.78,11,1,12,0.29
2013-6-8,62.0,56.2,52.0,49.0,22.9,-23.0,62,32,1,29.78,29.39,16,2,19,1.69
2013-6-9,65.0,57.0,49.0,54.5,29.8,-6.0,71,41,8,29.90,29.73,17,1,19,0.00
2013-6-10,71.0,59.3,50.0,59.0,34.1,-6.0,81,47,6,29.97,29.84,14,1,15,0.00
2013-6-11,55.0,53.3,51.0,28.0,12.8,-6.0,39,20,8,29.84,29.31,15,2,17,0.67
2013-6-12,58.0,54.2,51.0,36.0,3.9,-40.0,53,23,1,29.47,29.25,17,2,17,0.81
2013-6-13,72.0,58.4,51.0,61.0,33.9,-23.0,78,49,3,29.56,29.46,14,2,14,0.15
2013-6-14,67.0,55.7,50.0,56.0,31.4,-23.0,80,47,3,29.52,29.40,10,1,10,0.00
2013-6-15,75.0,61.7,47.0,54.0,33.7,-6.0,80,38,7,29.64,29.49,19,2,20,0.00
2013-6-16,75.0,61.8,51.0,57.5,41.9,11.0,80,49,19,29.65,29.50,13,1,14,0.00
2013-6-17,77.0,62.9,55.0,63.0,21.0,-23.0,81,30,2,29.61,29.48,16,2,19,0.08
2013-6-18,70.0,62.6,55.0,57.0,35.9,-23.0,80,48,3,29.70,29.62,13,1,14,0.00
2013-6-19,74.0,62.6,51.0,53.5,39.7,11.0,78,45,17,29.90,29.68,17,2,17,0.00
2013-6-20,75.0,62.1,48.0,59.0,40.1,-6.0,79,47,7,30.00,29.90,16,2,16,0.00
2013-6-21,76.0,63.5,54.0,62.0,35.4,-23.0,80,42,3,29.99,29.87,16,1,16,0.00
2013-6-22,76.0,65.1,56.0,66.7,45.7,11.0,76,52,15,29.97,29.84,9,0,11,0.00
2013-6-23,74.0,63.2,56.0,62.0,10.0,-23.0,67,20,1,29.90,29.71,12,1,13,0.10
2013-6-24,87.0,73.4,60.0,72.7,40.1,-23.0,79,40,1,29.73,29.48,19,2,19,0.05
2013-6-25,86.0,73.6,65.0,72.0,33.9,-23.0,79,37,1,29.57,29.42,17,2,18,0.26
2013-6-26,71.0,63.5,57.0,38.0,-18.3,-40.0,34,3,1,29.65,29.44,11,1,12,0.05
2013-6-27,58.0,54.8,53.0,28.0,-4.0,-40.0,31,12,1,29.68,29.63,11,2,12,0.01
2013-6-28,63.0,58.0,55.0,44.0,33.4,21.0,50,39,24,29.66,29.36,17,3,19,1.03
2013-6-29,65.0,62.2,61.0,56.5,37.4,-23.0,74,44,4,29.48,29.35,14,2,15,0.10
2013-6-30,68.0,62.8,60.0,59.0,13.5,-23.0,80,26,1,29.70,29.48,14,2,14,0.00
2013-7-1,77.0,66.9,61.0,57.0,22.6,-23.0,68,25,1,29.83,29.69,10,1,10,0.01
2013-7-2,66.0,59.6,56.0,16.0,-18.4,-40.0,18,4,1,29.99,29.85,11,1,12,0.65
2013-7-3,76.0,63.9,56.0,65.5,8.5,-40.0,70,25,1,29.95,29.81,12,1,12,0.00
2013-7-4,90.0,73.4,61.0,73.7,23.2,-23.0,79,30,1,29.88,29.75,15,2,16,0.00
2013-7-5,89.0,76.2,65.0,73.3,26.5,-23.0,77,32,1,29.81,29.69,15,2,17,0.00
2013-7-6,87.0,77.2,68.0,74.3,36.7,-23.0,77,41,6,29.74,29.58,18,2,18,0.00
2013-7-7,89.0,77.1,65.0,71.0,54.6,11.0,79,48,13,29.68,29.55,14,2,18,0.00
2013-7-8,77.0,68.3,60.0,64.0,47.7,18.0,75,50,18,29.84,29.64,10,1,11,0.00
2013-7-9,67.0,62.0,57.0,44.0,4.2,-23.0,55,13,1,29.89,29.84,8,0,8,0.00
2013-7-10,67.0,61.3,59.0,44.0,0.5,-23.0,47,12,1,29.87,29.61,15,1,15,0.00
2013-7-11,78.0,70.4,64.0,61.0,19.2,-23.0,68,24,1,29.70,29.51,12,1,12,0.05
2013-7-12,83.0,69.2,59.0,64.0,44.7,-23.0,81,47,7,29.98,29.69,12,2,12,0.00
2013-7-13,83.0,69.0,57.0,67.5,26.7,-40.0,78,35,1,30.05,29.98,16,1,17,0.00
2013-7-14,89.0,72.4,59.0,72.0,35.8,-23.0,79,38,1,30.04,29.87,17,1,17,0.00
2013-7-15,92.0,76.5,62.0,73.7,38.1,-23.0,78,36,1,29.92,29.71,12,1,14,0.00
2013-7-16,90.0,75.8,66.0,73.0,48.1,-23.0,79,48,1,29.93,29.79,9,2,9,0.00
2013-7-17,77.0,70.3,64.0,67.0,52.1,-23.0,74,59,1,29.95,29.66,9,3,9,0.30
2013-7-18,85.0,72.8,65.0,69.0,35.8,-23.0,78,37,1,29.74,29.66,9,1,9,0.01
2013-7-19,82.0,71.6,66.0,67.0,13.5,-23.0,63,21,1,29.71,29.35,9,2,9,0.00
2013-7-20,85.0,74.7,64.0,73.0,27.9,-23.0,72,33,1,29.51,29.29,9,2,9,0.15
2013-7-21,77.0,66.0,57.0,62.0,41.9,-40.0,79,49,1,29.81,29.51,9,1,9,0.00
2013-7-22,75.0,63.9,54.0,65.0,30.3,-40.0,78,39,2,29.81,29.72,9,1,9,0.00
2013-7-23,67.0,62.1,58.0,36.0,6.5,-40.0,39,15,1,29.73,29.29,9,1,9,1.24
2013-7-24,80.0,69.0,61.0,65.0,38.9,-23.0,72,39,5,29.71,29.30,9,2,9,0.01
2013-7-25,76.0,63.3,54.0,62.0,48.5,-23.0,79,61,8,29.90,29.71,9,1,9,0.02
2013-7-26,68.0,64.2,60.0,65.0,60.9,52.0,97,90,75,29.85,29.58,9,1,9,1.86
2013-7-27,81.0,66.9,60.0,69.0,63.1,56.0,100,88,66,29.82,29.58,9,2,9,0.04
2013-7-28,72.0,64.2,60.0,67.0,62.4,60.0,100,95,84,29.83,29.76,9,1,9,0.20
2013-7-29,75.0,65.8,62.0,69.0,63.5,60.0,100,93,84,29.82,29.74,9,1,9,0.01
2013-7-30,80.0,67.8,59.0,69.0,62.6,57.0,100,86,50,29.81,29.68,9,1,9,0.01
2013-7-31,80.0,66.6,57.0,66.0,58.2,53.0,94,77,46,29.84,29.73,9,2,9,0.00
2013-8-1,80.0,66.9,57.0,69.0,60.9,54.0,96,83,56,29.82,29.68,19,2,19,0.00
2013-8-2,67.0,63.8,61.0,61.0,59.3,56.0,92,85,79,29.69,29.51,80,2,80,0.14
2013-8-3,74.0,63.5,58.0,69.0,59.6,54.0,96,88,78,29.58,29.43,30,1,30,0.08
2013-8-4,77.0,65.2,56.0,67.0,58.7,52.0,93,81,60,29.54,29.42,14,1,16,0.00
2013-8-5,71.0,61.5,53.0,60.0,54.6,50.0,91,79,58,29.77,29.53,20,3,20,0.00
2013-8-6,75.0,62.7,49.0,59.0,53.6,47.0,91,75,50,29.92,29.77,12,2,19,0.00
2013-8-7,75.0,63.5,53.0,61.0,53.9,50.0,93,74,45,29.97,29.89,13,2,13,0.00
2013-8-8,64.0,61.5,57.0,59.0,56.4,53.0,91,84,79,29.93,29.80,11,1,12,0.20
2013-8-9,68.0,65.3,63.0,66.0,61.3,57.0,96,88,75,29.80,29.43,40,4,40,1.93
2013-8-10,78.0,68.8,57.0,73.0,58.7,49.0,97,74,38,29.73,29.43,18,2,19,0.01
2013-8-11,77.0,64.2,51.0,60.0,54.7,49.0,94,74,43,29.78,29.66,18,2,18,0.00
2013-8-12,78.0,65.2,55.0,65.0,57.7,53.0,93,79,49,29.76,29.62,14,2,19,0.00
2013-8-13,73.0,63.3,56.0,69.0,58.9,52.0,91,86,82,29.68,29.47,10,1,10,0.00
2013-8-14,74.0,63.8,58.0,69.0,59.1,53.0,94,86,74,29.57,29.32,19,2,20,0.00
2013-8-15,76.0,62.9,51.0,60.0,54.1,49.0,92,76,45,29.84,29.57,17,2,19,0.00
2013-8-16,78.0,63.7,53.0,65.0,54.9,49.0,96,76,42,29.96,29.82,14,1,16,0.00
2013-8-17,78.0,64.4,53.0,64.0,54.6,48.0,92,74,42,30.04,29.92,12,1,13,0.00
2013-8-18,76.0,63.5,53.0,66.0,56.6,48.0,91,80,51,30.04,29.80,12,1,12,0.00
2013-8-19,83.0,68.4,57.0,68.0,60.5,52.0,90,78,52,29.80,29.54,18,2,19,0.00
2013-8-20,82.0,69.8,61.0,71.0,62.2,54.0,90,78,59,29.82,29.67,14,1,14,0.00
2013-8-21,83.0,70.1,60.0,71.0,62.1,54.0,91,78,56,29.86,29.73,14,1,14,0.00
2013-8-22,82.0,69.9,61.0,72.0,63.6,55.0,89,81,60,29.75,29.50,16,2,17,0.00
2013-8-23,76.0,66.5,54.0,65.0,57.2,50.0,89,74,41,29.90,29.49,21,2,21,0.01
2013-8-24,77.0,62.7,50.0,56.0,49.4,41.0,92,67,32,30.07,29.90,16,2,16,0.00
2013-8-25,77.0,63.3,49.0,63.0,53.2,45.0,93,73,42,30.10,29.93,14,1,15,0.00
2013-8-26,73.0,63.5,55.0,68.0,58.7,52.0,90,85,80,29.93,29.59,17,1,17,0.03
2013-8-27,84.0,69.7,59.0,72.0,62.3,52.0,87,78,59,29.67,29.54,11,1,12,0.00
2013-8-28,78.0,65.1,60.0,72.0,58.8,50.0,87,81,70,29.76,29.59,11,1,12,0.01
2013-8-29,65.0,60.1,52.0,61.0,54.4,47.0,91,82,70,29.87,29.75,13,2,14,0.26
2013-8-30,71.0,61.2,50.0,66.0,55.9,45.0,92,83,74,29.80,29.51,13,1,16,0.00
2013-8-31,79.0,66.6,62.0,73.0,60.1,53.0,87,80,67,29.59,29.51,13,1,13,0.23
2013-9-1,80.0,68.9,62.0,74.0,63.4,54.0,96,83,61,29.70,29.52,8,0,10,0.03
2013-9-2,64.0,61.9,60.0,60.0,56.7,52.0,92,84,73,29.73,29.51,17,2,22,2.09
2013-9-3,74.0,66.3,62.0,69.0,61.3,54.0,100,85,60,29.52,29.43,11,1,12,1.89
2013-9-4,78.0,67.6,60.0,69.0,59.6,53.0,89,77,51,29.63,29.47,17,2,19,0.01
2013-9-5,66.0,57.7,48.0,60.0,49.9,39.0,91,77,38,29.90,29.61,11,1,11,0.34
2013-9-6,68.0,54.8,39.0,54.0,44.6,36.0,95,73,37,29.97,29.80,16,1,17,0.03
2013-9-7,70.0,60.7,53.0,62.0,55.9,48.0,92,84,67,29.81,29.54,16,2,16,0.01
2013-9-8,63.0,56.8,45.0,57.0,50.6,43.0,94,81,54,29.81,29.43,23,2,24,0.06
2013-9-9,66.0,53.3,40.0,53.0,46.2,38.0,94,79,42,29.94,29.81,19,2,20,0.03
2013-9-10,65.0,60.1,56.0,61.0,54.8,50.0,88,83,74,29.88,29.80,16,2,16,0.02
2013-9-11,75.0,64.7,57.0,70.0,58.0,48.0,89,79,62,29.82,29.61,13,1,13,0.01
2013-9-12,79.0,66.1,62.0,73.0,56.8,52.0,85,73,61,29.74,29.43,17,2,18,0.02
2013-9-13,65.0,62.8,58.0,60.0,55.6,47.0,87,78,66,29.44,29.32,17,1,18,0.01
2013-9-14,73.0,61.3,53.0,64.0,54.9,45.0,89,80,65,29.76,29.41,15,1,17,0.01
2013-9-15,66.0,56.7,48.0,58.0,49.1,40.0,91,76,60,29.86,29.76,17,2,17,0.02
2013-9-16,63.0,53.6,41.0,59.0,47.9,38.0,94,81,65,30.03,29.72,16,1,18,0.01
2013-9-17,65.0,49.3,35.0,50.0,41.7,33.0,96,78,46,30.13,29.99,19,1,19,0.00
2013-9-18,69.0,56.4,43.0,57.0,48.2,37.0,98,76,43,30.06,29.82,14,1,15,0.01
2013-9-19,76.0,59.4,45.0,60.0,49.1,39.0,89,72,39,29.89,29.71,11,1,12,0.00
2013-9-20,78.0,60.3,47.0,61.0,49.4,37.0,89,69,43,29.86,29.75,9,1,10,0.00
2013-9-21,67.0,58.8,53.0,62.0,48.6,37.0,86,70,48,29.83,29.58,21,3,21,0.00
2013-9-22,65.0,61.0,54.0,55.0,46.1,39.0,86,59,45,29.58,29.35,24,4,26,0.00
2013-9-23,57.0,51.0,45.0,50.0,46.1,41.0,91,84,71,29.65,29.47,19,3,22,0.00
2013-9-24,52.0,49.3,46.0,48.0,45.9,40.0,90,88,82,29.64,29.55,17,2,17,0.00
2013-9-25,59.0,52.1,48.0,53.0,47.9,43.0,89,86,76,29.72,29.59,15,2,17,0.00
2013-9-26,62.0,53.9,46.0,55.0,48.1,35.0,88,81,63,29.87,29.72,16,2,17,0.00
2013-9-27,72.0,59.4,51.0,59.0,50.4,39.0,87,73,51,30.00,29.87,15,1,15,0.00
2013-9-28,73.0,57.8,48.0,61.0,46.5,35.0,87,67,45,30.08,30.00,10,1,10,0.00
2013-9-29,67.0,54.7,43.0,59.0,42.1,31.0,85,63,46,30.05,29.88,13,1,14,0.00
2013-9-30,67.0,55.2,46.0,58.0,43.4,31.0,87,65,47,29.93,29.73,8,1,8,0.00
2013-10-1,75.0,60.5,51.0,56.0,45.0,35.0,87,59,28,29.73,29.50,13,1,14,0.00
2013-10-2,78.0,64.1,52.0,64.0,51.6,32.0,87,65,39,29.62,29.40,14,2,16,0.00
2013-10-3,72.0,61.6,50.0,54.0,48.3,42.0,89,64,39,29.81,29.62,20,2,23,0.00
2013-10-4,70.0,56.9,47.0,54.0,44.7,29.0,86,65,39,29.86,29.73,14,1,16,0.00
2013-10-5,65.0,53.4,46.0,53.0,45.8,38.0,88,77,47,29.94,29.82,13,1,13,0.00
2013-10-6,61.0,49.6,38.0,47.0,40.4,35.0,89,73,39,30.06,29.93,7,1,10,0.02
2013-10-7,65.0,57.4,47.0,58.0,40.2,29.0,81,54,27,30.03,29.55,32,6,32,0.08
2013-10-8,65.0,54.5,41.0,52.0,40.0,29.0,88,61,29,30.19,29.55,23,3,32,0.02
2013-10-9,63.0,48.2,37.0,47.0,37.7,24.0,87,67,46,30.26,30.14,12,1,13,0.00
2013-10-10,63.0,50.2,41.0,53.0,37.0,24.0,84,61,41,30.15,29.97,12,1,12,0.00
2013-10-11,76.0,55.9,44.0,60.0,41.9,26.0,86,60,42,29.98,29.82,6,0,6,0.00
2013-10-12,61.0,51.3,42.0,52.0,42.0,26.0,86,71,48,30.23,29.98,15,1,15,0.00
2013-10-13,62.0,48.3,38.0,50.0,36.8,23.0,84,65,43,30.25,30.16,12,1,12,0.00
2013-10-14,60.0,50.3,41.0,53.0,39.5,24.0,84,67,38,30.18,30.00,14,2,18,0.00
2013-10-15,67.0,55.6,49.0,57.0,43.8,26.0,84,65,41,30.05,29.95,9,1,10,0.00
2013-10-16,57.0,53.7,50.0,50.0,32.7,24.0,77,45,33,30.01,29.65,13,1,13,0.00
2013-10-17,61.0,54.6,51.0,54.0,36.3,23.0,79,51,29,29.65,29.51,10,1,12,0.00
2013-10-18,64.0,55.4,50.0,57.0,43.8,21.0,83,66,24,29.57,29.32,20,2,22,0.00
2013-10-19,64.0,52.6,47.0,50.0,43.8,39.0,84,73,44,29.68,29.56,17,2,18,0.00
2013-10-20,62.0,54.4,46.0,54.0,38.1,26.0,82,56,35,29.70,29.41,21,3,21,0.00
2013-10-21,61.0,49.6,42.0,47.0,37.9,31.0,84,66,38,29.82,29.70,17,2,17,0.00
2013-10-22,59.0,54.0,46.0,53.0,42.2,23.0,82,66,31,29.79,29.45,24,4,27,0.00
2013-10-23,55.0,45.2,36.0,46.0,33.7,21.0,85,65,46,29.57,29.36,11,1,12,0.00
2013-10-24,50.0,43.3,34.0,39.0,31.4,24.0,89,65,39,29.56,29.35,23,3,25,0.00
2013-10-25,53.0,42.8,34.0,37.0,33.0,29.0,86,69,44,29.87,29.56,16,2,16,0.00
2013-10-26,50.0,40.8,30.0,42.0,32.8,26.0,90,73,44,29.90,29.66,24,2,25,0.05
2013-10-27,54.0,45.7,38.0,47.0,37.7,26.0,84,74,54,29.76,29.52,10,1,16,0.02
2013-10-28,54.0,42.2,32.0,43.0,33.7,28.0,87,72,51,30.13,29.73,24,3,26,0.01
2013-10-29,48.0,34.7,24.0,31.0,24.4,16.0,94,69,31,30.25,30.11,11,1,12,0.02
2013-10-30,49.0,36.1,27.0,35.0,25.0,18.0,91,66,34,30.16,29.91,11,0,12,0.00
2013-10-31,56.0,43.8,29.0,45.0,30.4,18.0,91,62,31,30.07,29.55,25,3,30,0.30
2013-11-1,61.0,58.2,55.0,52.0,34.1,18.0,78,44,20,29.55,29.11,37,8,40,0.06
2013-11-2,63.0,53.5,45.0,54.0,45.0,24.0,83,73,36,29.52,29.27,13,2,16,0.01
2013-11-3,47.0,35.8,28.0,42.0,24.8,16.0,90,64,39,30.20,29.50,19,2,19,0.05
2013-11-4,41.0,30.6,23.0,26.0,21.0,16.0,97,68,39,30.53,30.20,17,1,18,0.00
2013-11-5,48.0,37.2,24.0,39.0,31.7,23.0,96,81,56,30.54,30.30,11,1,11,0.00
2013-11-6,52.0,47.2,39.0,47.0,40.8,32.0,85,79,63,30.30,29.75,20,3,22,0.00
2013-11-7,57.0,50.7,35.0,44.0,32.8,21.0,86,53,27,29.75,29.38,22,3,23,0.24
2013-11-8,43.0,37.2,32.0,35.0,29.7,24.0,90,74,49,29.71,29.52,16,3,17,0.01
2013-11-9,42.0,35.6,28.0,29.0,24.4,18.0,88,64,41,29.93,29.71,19,4,20,0.00
2013-11-10,47.0,39.1,30.0,39.0,28.4,16.0,89,67,40,29.90,29.48,20,1,20,0.09
2013-11-11,45.0,38.4,33.0,37.0,29.5,16.0,89,71,44,29.77,29.50,21,2,21,0.00
2013-11-12,47.0,33.4,24.0,40.0,24.2,16.0,85,67,57,29.87,29.58,23,4,23,0.00
2013-11-13,34.0,27.2,22.0,21.0,16.2,11.0,82,62,40,29.97,29.86,19,3,20,0.00
2013-11-14,47.0,37.9,28.0,36.0,29.0,18.0,95,70,47,29.90,29.71,16,2,17,0.00
2013-11-15,52.0,40.4,31.0,45.0,31.8,18.0,91,72,42,29.99,29.85,13,1,13,0.00
2013-11-16,51.0,39.1,31.0,46.0,30.3,16.0,89,70,49,30.14,29.99,6,0,6,0.00
2013-11-17,53.0,43.3,31.0,47.0,32.0,18.0,83,65,32,30.18,29.77,13,1,15,0.02
2013-11-18,58.0,52.0,43.0,49.0,29.3,14.0,76,43,21,29.77,29.23,36,5,37,0.63
2013-11-19,44.0,36.6,32.0,36.0,23.5,16.0,87,59,33,29.92,29.33,24,5,29,0.05
2013-11-20,37.0,30.5,24.0,18.0,11.6,4.0,63,44,26,30.43,29.91,23,4,27,0.00
2013-11-21,50.0,34.0,20.0,36.0,23.2,11.0,98,68,23,30.44,30.13,10,0,10,0.00
2013-11-22,41.0,34.7,29.0,35.0,29.2,21.0,94,80,44,30.13,29.57,8,0,9,0.00
2013-11-23,39.0,34.2,27.0,33.0,22.5,14.0,91,63,37,29.57,29.43,34,5,34,0.03
2013-11-24,27.0,20.8,18.0,21.0,9.8,4.0,78,58,45,29.71,29.41,34,9,34,0.00
2013-11-25,27.0,20.1,14.0,14.0,5.2,0.0,63,49,28,30.13,29.71,28,5,28,0.00
2013-11-26,36.0,30.5,23.0,29.0,25.0,14.0,98,79,49,30.12,29.99,9,0,10,0.05
2013-11-27,57.0,49.8,36.0,33.0,24.7,16.0,67,37,26,29.99,28.88,49,9,52,0.72
2013-11-28,41.0,29.0,18.0,33.0,18.8,8.0,92,64,45,30.18,29.01,36,6,36,0.44
2013-11-29,24.0,17.9,12.0,16.0,12.5,8.0,100,78,48,30.55,30.18,17,2,18,0.00
2013-11-30,33.0,19.5,8.0,29.0,16.2,8.0,100,86,47,30.64,30.23,14,1,14,0.00
2013-12-1,39.0,35.5,33.0,33.0,24.1,16.0,97,63,41,30.23,29.91,18,2,21,0.00
2013-12-2,43.0,38.3,33.0,26.0,21.8,14.0,65,51,33,29.91,29.73,12,1,12,0.74
2013-12-3,39.0,36.7,34.0,31.0,23.8,14.0,84,60,37,29.73,29.58,18,2,18,0.02
2013-12-4,43.0,33.9,27.0,33.0,29.3,21.0,92,83,65,30.02,29.59,21,3,23,0.00
2013-12-5,49.0,36.1,24.0,37.0,23.1,14.0,82,60,31,30.10,29.69,16,2,16,0.04
2013-12-6,49.0,42.8,35.0,35.0,28.8,11.0,86,58,27,29.88,29.61,15,1,15,0.16
2013-12-7,36.0,30.4,22.0,32.0,18.5,11.0,89,61,42,30.18,29.85,17,3,20,0.01
2013-12-8,25.0,20.4,16.0,16.0,11.7,4.0,89,65,45,30.43,30.18,17,2,19,0.00
2013-12-9,34.0,24.6,18.0,23.0,15.0,8.0,100,65,46,30.40,29.61,16,2,18,0.00
2013-12-10,33.0,28.0,18.0,29.0,18.3,11.0,99,67,39,29.68,29.51,12,1,15,0.00
2013-12-11,28.0,20.9,11.0,21.0,16.4,11.0,100,82,52,29.93,29.68,15,2,22,0.00
2013-12-12,15.0,10.7,4.0,16.0,5.4,-6.0,100,75,45,30.05,29.82,24,2,24,0.00
2013-12-13,22.0,14.1,1.0,16.0,5.4,-6.0,93,65,35,30.22,29.69,26,5,30,0.00
2013-12-14,11.0,3.1,-6.0,4.0,-3.1,-6.0,93,69,46,30.46,30.22,11,1,13,0.00
2013-12-15,26.0,14.0,7.0,24.0,14.2,0.0,100,97,70,30.28,29.15,26,3,28,0.00
2013-12-16,21.0,12.8,1.0,18.0,8.2,0.0,100,79,43,30.04,29.46,31,3,31,0.00
2013-12-17,15.0,4.8,-8.0,14.0,3.7,-6.0,100,88,63,30.17,29.89,11,0,13,0.00
2013-12-18,21.0,16.5,12.0,21.0,17.2,14.0,100,100,100,29.89,29.60,17,2,17,0.00
2013-12-19,32.0,26.0,14.0,31.0,26.2,14.0,100,99,92,29.88,29.69,11,0,11,0.00
2013-12-20,38.0,31.2,25.0,38.0,27.1,16.0,100,85,51,29.95,29.70,10,0,10,0.01
2013-12-21,33.0,30.5,27.0,21.0,16.1,14.0,66,54,45,29.77,29.61,10,1,13,0.00
2013-12-22,32.0,29.8,27.0,18.0,14.8,14.0,63,51,47,29.90,29.69,11,1,12,0.01
2013-12-23,32.0,29.9,27.0,18.0,14.7,11.0,58,51,46,29.92,29.76,6,0,20,0.00
2013-12-24,32.0,18.4,9.0,16.0,13.9,8.0,100,84,48,29.96,29.82,2,0,2,0.00
2013-12-25,17.0,9.8,5.0,18.0,10.9,8.0,100,100,100,30.40,29.96,7,0,7,0.00
2013-12-26,30.0,18.9,5.0,21.0,14.2,8.0,100,82,52,30.38,29.83,3,0,3,0.00
2013-12-27,30.0,20.8,10.0,29.0,20.1,11.0,100,95,76,30.00,29.89,4,0,4,0.01
2013-12-28,35.0,27.3,15.0,32.0,22.3,16.0,100,80,55,29.98,29.69,9,0,10,0.02
2013-12-29,35.0,31.8,28.0,23.0,17.2,14.0,67,53,43,29.83,29.29,12,0,12,0.08
2013-12-30,31.0,17.3,2.0,26.0,15.4,4.0,100,90,47,30.01,29.25,25,3,25,0.00
2013-12-31,9.0,3.7,-4.0,8.0,5.5,0.0,100,99,95,30.04,29.87,7,1,7,0.00
2014-1-1,18.0,5.6,-3.0,16.0,6.2,0.0,100,96,75,30.28,29.94,24,2,24,0.00
2014-1-2,-2.0,-7.1,-9.0,0.0,-4.7,-6.0,100,100,92,30.36,29.88,15,3,17,0.00